Weather History for KYNG - July, 2012

Change the Weather History Date:

Friday, July 13, 2012

  Actual Average Record
Temperature  
Mean Temperature 74 °F 71 °F  
Max Temperature 84 °F 82 °F 102 °F (1936)
Min Temperature 64 °F 60 °F 48 °F (1959)
Degree Days  
Heating Degree Days 0 0  
Month to date heating degree days 0 8  
Since 1 June heating degree days 41 77  
Since 1 July heating degree days 0 8  
Cooling Degree Days 9 6  
Month to date cooling degree days 138 78  
Year to date cooling degree days 393 227  
Since 1 June cooling degree days 292 188  
Growing Degree Days 24 (Base 50)    
Moisture  
Dew Point 57 °F    
Average Humidity 65    
Maximum Humidity 87    
Minimum Humidity 42    
Precipitation  
Precipitation 0.00 in 0.14 in - ()
Month to date precipitation 2.48 1.80  
Year to date precipitation 20.43 20.47  
Snow  
Snow 0.00 in 0.00 in - ()
Month to date snowfall T 0.0  
Since 1 June snowfall T 0.0  
Since 1 July snowfall T 0.0  
Snow Depth 0.00 in    
Sea Level Pressure  
Sea Level Pressure 30.17 in    
Wind  
Wind Speed 7 mph (South)    
Max Wind Speed 17 mph    
Max Gust Speed 23 mph    
Visibility 10 miles    
Events      
T = Trace of Precipitation, MM = Missing Value Source: NWS Daily Summary

Daily Weather History Graph

Daily Weather History Graph

Search for Another Location

Airport or City:

Trip Planner

Search our weather history database for the weather conditions in past years. The results will help you decide how hot, cold, wet, or windy it might be!

Date:

Astronomy

Jul. 13, 2012 Rise Set
Actual Time 6:01 AM EDT 8:55 PM EDT
Civil Twilight 5:28 AM EDT 9:27 PM EDT
Nautical Twilight 4:47 AM EDT 10:09 PM EDT
Astronomical Twilight 3:58 AM EDT 10:57 PM EDT
Moon 1:38 AM EDT (7/13) 4:22 PM EDT (7/13)
Length of Visible Light 15h 59m
Length of Day
14h 53m
Waning Crescent, 26% of the Moon is Illuminated
Jul 13
Waning Crescent
Jul 19
New
Jul 26
First Quarter
Aug 1
Full
Aug 9
Last Quarter

Hourly Weather History & Observations

Time (EDT) Temp. Heat Index Dew Point Humidity Pressure Visibility Wind Dir Wind Speed Gust Speed Precip Events Conditions
12:51 AM 66.0 °F - 61.0 °F 84% 30.14 in 8.0 mi Calm Calm - N/A   Mostly Cloudy
1:51 AM 64.9 °F - 61.0 °F 87% 30.15 in 8.0 mi Calm Calm - N/A   Mostly Cloudy
2:51 AM 69.1 °F - 62.1 °F 78% 30.14 in 8.0 mi SE 5.8 mph - N/A   Mostly Cloudy
3:51 AM 70.0 °F - 61.0 °F 73% 30.15 in 10.0 mi SW 8.1 mph - N/A   Mostly Cloudy
4:51 AM 69.1 °F - 59.0 °F 70% 30.16 in 10.0 mi SW 5.8 mph - N/A   Mostly Cloudy
5:51 AM 66.9 °F - 57.0 °F 70% 30.17 in 10.0 mi SW 4.6 mph - N/A   Mostly Cloudy
6:51 AM 68.0 °F - 57.0 °F 68% 30.18 in 10.0 mi SSW 3.5 mph - N/A   Mostly Cloudy
7:51 AM 70.0 °F - 57.9 °F 65% 30.19 in 10.0 mi Calm Calm - N/A   Overcast
8:51 AM 72.0 °F - 57.9 °F 61% 30.20 in 10.0 mi SW 3.5 mph - N/A   Overcast
9:51 AM 73.9 °F - 57.0 °F 55% 30.21 in 10.0 mi SW 3.5 mph - N/A   Overcast
10:51 AM 77.0 °F - 57.9 °F 52% 30.22 in 10.0 mi WSW 4.6 mph - N/A   Overcast
11:51 AM 81.0 °F 81.3 °F 59.0 °F 47% 30.21 in 10.0 mi South 8.1 mph - N/A   Mostly Cloudy
12:51 PM 82.0 °F 82.0 °F 57.9 °F 44% 30.20 in 10.0 mi SSE 10.4 mph 17.3 mph N/A   Mostly Cloudy
1:51 PM 82.9 °F 82.6 °F 57.9 °F 42% 30.20 in 10.0 mi South 10.4 mph 19.6 mph N/A   Overcast
2:51 PM 82.9 °F 82.6 °F 57.9 °F 42% 30.19 in 10.0 mi SSE 12.7 mph 18.4 mph N/A   Overcast
3:51 PM 81.0 °F 80.7 °F 55.0 °F 41% 30.18 in 10.0 mi South 10.4 mph 18.4 mph N/A   Overcast
4:51 PM 81.0 °F 80.7 °F 55.0 °F 41% 30.17 in 10.0 mi South 13.8 mph 20.7 mph N/A   Mostly Cloudy
5:51 PM 79.0 °F - 55.0 °F 44% 30.17 in 10.0 mi South 11.5 mph 19.6 mph N/A   Mostly Cloudy
6:51 PM 78.1 °F - 55.0 °F 45% 30.15 in 10.0 mi SE 11.5 mph - N/A   Mostly Cloudy
7:51 PM 75.9 °F - 54.0 °F 46% 30.15 in 10.0 mi SE 8.1 mph - N/A   Scattered Clouds
8:51 PM 72.0 °F - 55.0 °F 55% 30.15 in 10.0 mi ESE 8.1 mph - N/A   Scattered Clouds
9:51 PM 66.9 °F - 55.0 °F 66% 30.17 in 10.0 mi ESE 4.6 mph - N/A   Scattered Clouds
10:51 PM 66.0 °F - 55.0 °F 68% 30.17 in 10.0 mi ESE 4.6 mph - N/A   Scattered Clouds
11:51 PM 66.0 °F - 55.0 °F 68% 30.16 in 10.0 mi SE 4.6 mph - N/A   Scattered Clouds